This demonstration page uses our WeatherBlox Daily Observations layout. Learn more.

38.88101, -77.10428

Hourly Observations for June 7, 2017

Temp ( °F °C ) Dew Point ( °F °C ) Humidity (%) Winds ( mph kmh ) Pressure ( in mb ) Visibility ( mi km ) Precip ( " mm )
12:52 am 00:52 Mostly Cloudy 65 18.3 53 11.7 66 66 N 9 15 29.85 1011 10 16.0934 0 0
1:52 am 01:52 Mostly Cloudy 64 17.8 60 15.6 87 87 ENE 8 13 29.85 1011 10 16.0934 0 0
2:52 am 02:52 Mostly Cloudy 63 17.2 60 15.6 90 90 ENE 3 6 29.86 1011 10 16.0934 0 0
3:18 am 03:18 Mostly Cloudy 63 17.2 60 15.6 90 90 ENE 5 7 29.88 1012 10 16.0934 0 0
3:52 am 03:52 Cloudy 63 17.2 60 15.6 90 90 ENE 7 11 29.86 1011 10 16.0934 0 0
4:22 am 04:22 Mostly Cloudy 63 17.2 60 15.6 90 90 E 7 11 29.88 1012 10 16.0934 0 0
4:52 am 04:52 Mostly Cloudy 63 17.2 60 15.6 90 90 ENE 9 15 29.88 1012 10 16.0934 0 0
4:59 am 04:59 Mostly Cloudy 63 17.2 60 15.6 90 90 ENE 8 13 29.88 1012 10 16.0934 0 0
5:52 am 05:52 Cloudy 63 17.2 59 15 87 87 ENE 7 11 29.89 1012 10 16.0934 0 0
5:59 am 05:59 Mostly Cloudy 63 17.2 59 15 87 87 ENE 7 11 29.88 1012 10 16.0934 0 0
6:47 am 06:47 Mostly Cloudy 63 17 59 15 88 88 ENE 10 17 29.91 1013 10 16.0934 0 0
6:52 am 06:52 Mostly Cloudy 63 17.2 59 15 87 87 E 9 15 29.91 1013 10 16.0934 0 0
7:43 am 07:43 Mostly Cloudy 64 17.8 59 15 84 84 E 9 15 29.91 1013 10 16.0934 0 0
7:52 am 07:52 Mostly Cloudy 65 18.3 59 15 81 81 E 8 13 29.92 1013 10 16.0934 0 0
8:52 am 08:52 Mostly Cloudy 65 18.3 58 14.4 78 78 E 12 19 29.94 1014 10 16.0934 0 0
9:27 am 09:27 Mostly Cloudy 65 18.3 57 13.9 76 76 ENE 13 20 29.97 1015 10 16.0934 0 0
9:52 am 09:52 Mostly Cloudy 65 18.3 58 14.4 78 78 ENE 10 17 29.96 1015 10 16.0934 0 0
10:41 am 10:41 Mostly Cloudy 66 18.9 57 13.9 73 73 ENE 14 22 29.97 1015 10 16.0934 0 0
10:52 am 10:52 Mostly Cloudy 65 18.3 57 13.9 76 76 ENE 10 17 29.98 1015 10 16.0934 0 0
11:25 am 11:25 Mostly Cloudy 67 19.4 58 14.4 73 73 ENE 9 15 29.97 1015 10 16.0934 0 0
11:49 am 11:49 Mostly Cloudy 66 19 57 14 73 73 ESE 10 17 29.97 1015 10 16.0934 0 0
11:52 am 11:52 Mostly Cloudy 66 18.9 57 13.9 73 73 ESE 10 17 29.98 1015 10 16.0934 0 0
12:52 pm 12:52 Mostly Cloudy 67 19.4 56 13.3 68 68 ENE 12 19 29.98 1015 10 16.0934 0 0
1:52 pm 13:52 Mostly Cloudy 67 19.4 56 13.3 68 68 E 12 19 29.99 1016 10 16.0934 0 0
2:47 pm 14:47 Cloudy 66 19 55 13 68 68 ENE 16 26 30 1016 10 16.0934 0 0
2:52 pm 14:52 Cloudy 67 19.4 55 12.8 66 66 ENE 13 20 29.99 1016 10 16.0934 0 0
3:52 pm 15:52 Cloudy 66 18.9 55 12.8 68 68 NNE 14 22 29.99 1016 10 16.0934 0 0
4:52 pm 16:52 Cloudy 68 20 54 12.2 61 61 NNE 9 15 30 1016 10 16.0934 0 0
5:52 pm 17:52 Cloudy 66 18.9 53 11.7 63 63 NE 10 17 30.01 1016 10 16.0934 0 0
6:52 pm 18:52 Cloudy 66 18.9 52 11.1 61 61 NE 14 22 30.02 1017 10 16.0934 0 0
7:52 pm 19:52 Cloudy 65 18.3 52 11.1 63 63 NE 9 15 30.03 1017 10 16.0934 0 0
8:52 pm 20:52 Mostly Cloudy 64 17.8 52 11.1 65 65 NNE 8 13 30.03 1017 10 16.0934 0 0
9:52 pm 21:52 Mostly Cloudy 63 17.2 52 11.1 68 68 ENE 8 13 30.04 1017 10 16.0934 0 0
10:52 pm 22:52 Partly Cloudy 62 16.7 52 11.1 70 70 NNE 5 7 30.05 1018 10 16.0934 0 0
11:52 pm 23:52 Partly Cloudy 62 16.7 54 12.2 75 75 N 3 6 30.05 1018 10 16.0934 0 0

Powered by AerisWeather